#timestamp,LO_Frequency,Hit,StdDev 
1552111215.1,286046999.7,N
1552111216.0,286046999.7,N
1552111235.8,286046999.9,N
1552111255.7,286047002.8,Y
1552111275.5,286046999.8,P
1552111295.3,286047002.8,P
1552111315.1,286047002.7,N
1552111335.9,286047002.3,N
1552111355.7,286047002.5,N
1552111375.5,286047002.2,N
1552111395.4,286047002.6,N
1552111415.2,286047001.8,N
1552111435.0,286047001.9,N
1552111435.9,286047001.9,N
1552111455.8,286047001.5,N
1552111475.6,286047001.8,N
1552111495.4,286047001.4,N
1552111515.3,286047004.4,Y
1552111535.1,286046999.8,P
1552111555.8,286047002.8,N
1552111575.7,286047002.4,N
1552111595.5,286047001.6,N
1552111615.3,286047002.2,N
1552111635.2,286047002.0,N
1552111655.9,286047001.9,N
1552111675.7,286047003.9,Y
1552111695.6,286047000.2,P
1552111715.4,286047002.8,P
1552111735.2,286047002.0,N
1552111755.1,286047001.9,N
1552111756.0,286047001.9,N
1552111775.8,286047002.5,Y
1552111795.6,286047000.8,P
1552111815.5,286047000.9,N
1552111835.3,286046999.7,N
1552111855.1,286047002.7,Y
1552111875.9,286047000.2,P
1552111895.7,286047000.1,N
1552111915.5,286046999.8,N
1552111935.3,286047000.3,N
1552111955.2,286047002.7,Y
1552111975.0,286047002.7,P
1552111975.9,286047002.7,N
1552111995.8,286047002.3,N
1552112015.6,286047002.6,N
1552112035.4,286047002.6,N
1552112055.2,286047002.5,N
1552112075.1,286047002.0,N
1552112076.0,286047002.0,N
1552112095.8,286047001.6,N
1552112115.6,286047002.2,Y
1552112135.5,286047000.0,P
1552112155.3,286046999.9,N
1552112175.1,286046999.9,N
1552112195.9,286047000.1,N
1552112215.7,286046999.8,N
1552112235.5,286047000.3,N
1552112255.4,286047000.3,N
1552112275.2,286047002.8,Y
1552112295.0,286047000.6,P
1552112295.9,286047000.6,P
1552112315.8,286047000.4,N
1552112335.6,286047000.0,N
1552112355.4,286046999.9,N
1552112375.3,286047001.9,Y
1552112395.1,286047000.0,P
1552112415.8,286047002.7,P
1552112435.7,286047000.2,N
1552112455.5,286047002.3,N
1552112475.3,286047000.1,N
1552112495.2,286047002.6,N
1552112515.9,286047002.5,N
1552112535.7,286047002.5,N
1552112555.5,286047002.2,N
1552112575.4,286047002.2,N
1552112595.2,286047002.8,N
1552112615.0,286047002.2,N
1552112615.9,286047002.2,N
1552112635.8,286047002.2,N
1552112655.6,286047002.2,N
1552112675.4,286047002.1,N
1552112695.3,286047002.7,N
1552112715.1,286047002.1,N
1552112716.0,286047002.1,N
1552112735.8,286047002.4,N
1552112755.7,286047001.4,N
1552112775.5,286047002.0,N
1552112795.3,286047002.0,N
1552112815.2,286047002.1,N
1552112835.9,286047002.4,N
1552112855.7,286047002.0,N
1552112875.5,286047002.0,N
1552112895.4,286047001.4,N
1552112915.2,286047002.0,N
1552112935.0,286047002.1,N
1552112935.9,286047002.1,N
1552112955.8,286047002.1,Y
1552112975.6,286047000.4,P
1552112995.4,286047000.4,N
1552113015.3,286047000.6,N
1552113035.1,286047000.5,N
1552113055.8,286047000.5,N
1552113075.7,286047000.9,N
1552113095.5,286047000.0,N
1552113115.3,286047000.7,N
1552113135.2,286047000.8,N
1552113155.9,286047000.6,N
1552113175.7,286046998.1,Y
1552113195.6,286046998.8,P
1552113215.4,286046996.5,P
1552113235.2,286046999.4,N
1552113255.1,286046997.0,N
1552113256.0,286046997.0,N
1552113275.8,286046996.7,N
1552113295.6,286046997.2,N
1552113315.4,286046997.3,N
1552113335.3,286046997.7,N
1552113355.1,286046996.7,N
1552113375.8,286046997.5,N
1552113395.7,286046997.9,N
1552113415.5,286046995.0,Y
1552113435.3,286046999.1,P
1552113455.2,286046999.5,N
1552113475.0,286046999.6,N
1552113475.9,286046999.6,N
1552113495.7,286046999.1,N
1552113515.6,286046997.1,Y
1552113535.4,286046999.2,P
1552113555.2,286046999.3,P
1552113575.1,286046997.0,P
1552113576.0,286046997.0,Y
1552113595.8,286046999.2,P
1552113615.6,286046999.0,P
1552113635.5,286046998.6,P
1552113655.3,286046999.4,N
1552113675.1,286046999.2,N
1552113695.9,286046999.6,N
1552113715.7,286046999.4,N
1552113735.5,286046996.8,Y
1552113755.4,286046999.5,P
1552113775.2,286046996.6,P
1552113795.0,286046996.7,N
1552113795.9,286046996.7,N
1552113815.8,286046999.6,N
1552113835.6,286046996.6,N
1552113855.4,286046997.4,N
1552113875.3,286046996.8,N
1552113895.1,286046997.2,N
1552113896.0,286046997.2,N
1552113915.8,286046997.4,N
1552113935.7,286046997.5,N
1552113955.5,286046997.9,N
1552113975.3,286046995.0,Y
1552113995.2,286046999.1,P
1552114015.9,286046999.5,N
1552114035.7,286046997.2,P
1552114055.6,286046997.2,N
1552114075.4,286046996.9,Y
1552114095.2,286046999.4,P
1552114115.1,286046998.8,N
1552114116.0,286046998.8,N
1552114135.8,286046996.5,Y
1552114155.6,286046998.7,P
1552114175.5,286046998.3,P
1552114195.3,286046999.5,N
1552114215.1,286046996.5,Y
1552114235.9,286046998.7,P
1552114255.7,286046999.4,P
1552114275.5,286046999.0,P
1552114295.4,286046996.9,Y
1552114315.2,286046999.4,P
1552114335.0,286046998.9,P
1552114335.9,286046998.9,P
1552114355.8,286046996.9,Y
1552114375.6,286046998.6,P
1552114395.4,286046999.2,P
1552114415.3,286046997.0,P
1552114435.1,286046996.8,Y
1552114455.8,286046998.8,P
1552114475.7,286046999.3,P
1552114495.5,286046999.5,N
1552114515.3,286046999.4,N
1552114535.2,286046997.2,Y
1552114555.9,286046999.4,P
1552114575.7,286046996.5,P
1552114595.6,286046997.8,N
1552114615.4,286046997.3,N
1552114635.2,286046997.7,N
1552114655.0,286046997.9,N
1552114656.0,286046997.9,N
1552114675.8,286046996.2,Y
1552114695.6,286046997.8,P
1552114715.5,286046997.3,P
1552114735.3,286046995.6,P
1552114755.1,286046995.1,Y
1552114775.9,286046999.4,P
1552114795.7,286046999.6,N
